Hourly Weather Luganka

Today, 16 June, Wednesday

Time Temperature Precipitation Wind Pressure Humidity
00:00 +18°C° 0 mm 2 mps 744 mmHg 89%
01:00 +18°C° 0 mm 2 mps 744 mmHg 90%
02:00 +17°C° 0 mm 2 mps 744 mmHg 91%
03:00 +18°C° 0 mm 2 mps 744 mmHg 91%
04:00 +18°C° 0 mm 2 mps 744 mmHg 92%
05:00 +18°C° 0 mm 2 mps 744 mmHg 92%
06:00 +20°C° 0 mm 2 mps 744 mmHg 88%
07:00 +21°C° 0 mm 3 mps 744 mmHg 83%
08:00 +22°C° 0 mm 3 mps 745 mmHg 78%
09:00 +24°C° 0.6 mm 3 mps 745 mmHg 75%
10:00 +25°C° 0.6 mm 4 mps 745 mmHg 73%
11:00 +25°C° 0.6 mm 4 mps 745 mmHg 70%
12:00 +25°C° 0.6 mm 4 mps 745 mmHg 70%
13:00 +25°C° 0.6 mm 4 mps 745 mmHg 71%
14:00 +26°C° 0 mm 4 mps 746 mmHg 69%
15:00 +25°C° 0.2 mm 4 mps 746 mmHg 71%
16:00 +25°C° 0.2 mm 3 mps 746 mmHg 73%
17:00 +25°C° 0.2 mm 3 mps 746 mmHg 76%
18:00 +22°C° 0.1 mm 3 mps 746 mmHg 81%
19:00 +21°C° 0.1 mm 3 mps 747 mmHg 85%
20:00 +19°C° 0.1 mm 3 mps 747 mmHg 90%
21:00 +19°C° 0 mm 3 mps 748 mmHg 91%
22:00 +18°C° 0 mm 3 mps 748 mmHg 93%
23:00 +17°C° 0 mm 3 mps 748 mmHg 94%

Tomorrow, 17 June, Thursday

Time Temperature Precipitation Wind Pressure Humidity
00:00 +17°C° 0 mm 3 mps 748 mmHg 94%
01:00 +16°C° 0 mm 3 mps 749 mmHg 95%
02:00 +16°C° 0 mm 3 mps 749 mmHg 95%
03:00 +15°C° 0 mm 4 mps 749 mmHg 93%
04:00 +15°C° 0 mm 4 mps 750 mmHg 91%
05:00 +15°C° 0 mm 4 mps 750 mmHg 89%
06:00 +17°C° 0 mm 5 mps 750 mmHg 81%
07:00 +19°C° 0 mm 6 mps 751 mmHg 74%
08:00 +20°C° 0 mm 6 mps 751 mmHg 67%
09:00 +21°C° 0 mm 6 mps 751 mmHg 64%
10:00 +22°C° 0 mm 6 mps 752 mmHg 62%
11:00 +23°C° 0 mm 6 mps 752 mmHg 60%
12:00 +23°C° 0 mm 6 mps 752 mmHg 60%
13:00 +23°C° 0 mm 6 mps 752 mmHg 60%
14:00 +23°C° 0 mm 6 mps 752 mmHg 60%
15:00 +23°C° 0 mm 6 mps 752 mmHg 63%
16:00 +22°C° 0 mm 6 mps 752 mmHg 67%
17:00 +22°C° 0 mm 6 mps 753 mmHg 70%
18:00 +20°C° 0 mm 5 mps 753 mmHg 75%
19:00 +19°C° 0 mm 4 mps 753 mmHg 80%
20:00 +17°C° 0 mm 4 mps 753 mmHg 85%
21:00 +15°C° 0 mm 4 mps 753 mmHg 87%
22:00 +15°C° 0 mm 4 mps 754 mmHg 89%
23:00 +14°C° 0 mm 3 mps 754 mmHg 90%

Day after tomorrow, 18 June, Friday

Time Temperature Precipitation Wind Pressure Humidity
00:00 +13°C° 0 mm 3 mps 754 mmHg 91%
01:00 +13°C° 0 mm 3 mps 754 mmHg 91%
02:00 +13°C° 0 mm 3 mps 754 mmHg 91%
03:00 +13°C° 0 mm 3 mps 754 mmHg 89%
04:00 +13°C° 0 mm 3 mps 755 mmHg 87%
05:00 +14°C° 0 mm 4 mps 755 mmHg 85%
06:00 +15°C° 0 mm 4 mps 755 mmHg 80%
07:00 +17°C° 0 mm 5 mps 755 mmHg 75%
08:00 +20°C° 0 mm 5 mps 755 mmHg 69%
09:00 +21°C° 0 mm 6 mps 755 mmHg 66%
10:00 +21°C° 0 mm 6 mps 755 mmHg 63%
11:00 +22°C° 0 mm 6 mps 755 mmHg 59%
12:00 +23°C° 0 mm 6 mps 755 mmHg 59%
13:00 +23°C° 0 mm 6 mps 755 mmHg 59%
14:00 +23°C° 0 mm 6 mps 755 mmHg 59%
15:00 +23°C° 0 mm 5 mps 755 mmHg 63%
16:00 +23°C° 0 mm 5 mps 755 mmHg 66%
17:00 +22°C° 0 mm 4 mps 755 mmHg 70%
18:00 +21°C° 0 mm 4 mps 755 mmHg 75%
19:00 +19°C° 0 mm 4 mps 755 mmHg 81%
20:00 +17°C° 0 mm 3 mps 755 mmHg 86%
21:00 +17°C° 0 mm 3 mps 756 mmHg 87%
22:00 +16°C° 0 mm 3 mps 756 mmHg 88%
23:00 +14°C° 0 mm 3 mps 756 mmHg 89%

19 June, Saturday

Time Temperature Precipitation Wind Pressure Humidity
00:00 +14°C° 0 mm 3 mps 756 mmHg 90%
01:00 +13°C° 0 mm 3 mps 756 mmHg 90%
02:00 +13°C° 0 mm 3 mps 756 mmHg 91%
03:00 +13°C° 0 mm 3 mps 756 mmHg 90%
04:00 +14°C° 0 mm 3 mps 756 mmHg 89%
05:00 +15°C° 0 mm 2 mps 757 mmHg 88%
06:00 +17°C° 0 mm 3 mps 757 mmHg 83%
07:00 +18°C° 0 mm 4 mps 757 mmHg 78%
08:00 +20°C° 0 mm 4 mps 757 mmHg 74%
09:00 +21°C° 0 mm 4 mps 756 mmHg 70%
10:00 +22°C° 0 mm 4 mps 756 mmHg 66%
11:00 +23°C° 0 mm 5 mps 756 mmHg 62%
12:00 +23°C° 0 mm 5 mps 756 mmHg 60%
13:00 +25°C° 0 mm 4 mps 756 mmHg 58%
14:00 +25°C° 0 mm 4 mps 755 mmHg 56%
15:00 +25°C° 0 mm 4 mps 755 mmHg 60%
16:00 +23°C° 0 mm 4 mps 755 mmHg 63%
17:00 +24°C° 0 mm 3 mps 755 mmHg 67%
18:00 +21°C° 0 mm 3 mps 755 mmHg 72%
19:00 +20°C° 0 mm 3 mps 755 mmHg 78%
20:00 +18°C° 0 mm 3 mps 755 mmHg 83%
21:00 +17°C° 0 mm 3 mps 755 mmHg 84%
22:00 +16°C° 0 mm 3 mps 755 mmHg 86%
23:00 +16°C° 0 mm 2 mps 755 mmHg 87%

20 June, Sunday

Time Temperature Precipitation Wind Pressure Humidity
00:00 +15°C° 0 mm 2 mps 755 mmHg 88%
01:00 +14°C° 0 mm 3 mps 755 mmHg 89%
02:00 +14°C° 0 mm 3 mps 755 mmHg 90%
03:00 +15°C° 0 mm 2 mps 755 mmHg 90%
04:00 +16°C° 0 mm 2 mps 755 mmHg 89%
05:00 +16°C° 0 mm 2 mps 755 mmHg 88%
06:00 +18°C° 0 mm 3 mps 755 mmHg 82%
07:00 +19°C° 0 mm 3 mps 755 mmHg 76%
08:00 +21°C° 0 mm 4 mps 755 mmHg 70%
09:00 +22°C° 0 mm 4 mps 754 mmHg 66%
10:00 +23°C° 0 mm 4 mps 754 mmHg 62%
11:00 +25°C° 0 mm 4 mps 754 mmHg 58%
12:00 +26°C° 0 mm 4 mps 754 mmHg 58%
13:00 +26°C° 0 mm 4 mps 754 mmHg 57%
14:00 +27°C° 0 mm 4 mps 753 mmHg 56%
15:00 +27°C° 0 mm 4 mps 753 mmHg 60%
16:00 +26°C° 0 mm 3 mps 753 mmHg 63%
17:00 +26°C° 0 mm 3 mps 752 mmHg 67%
18:00 +24°C° 0 mm 3 mps 752 mmHg 74%
19:00 +22°C° 0 mm 3 mps 752 mmHg 80%
20:00 +20°C° 0 mm 3 mps 752 mmHg 86%
21:00 +19°C° 0 mm 3 mps 752 mmHg 88%
22:00 +18°C° 0 mm 3 mps 752 mmHg 89%
23:00 +18°C° 0 mm 3 mps 752 mmHg 90%

21 June, Monday

Time Temperature Precipitation Wind Pressure Humidity
00:00 +18°C° 0 mm 3 mps 752 mmHg 91%
01:00 +17°C° 0 mm 3 mps 752 mmHg 91%
02:00 +17°C° 0 mm 3 mps 752 mmHg 92%
03:00 +18°C° 0 mm 3 mps 752 mmHg 90%
04:00 +18°C° 0 mm 3 mps 752 mmHg 89%
05:00 +18°C° 0 mm 3 mps 752 mmHg 88%
06:00 +20°C° 0 mm 4 mps 752 mmHg 82%
07:00 +22°C° 0 mm 4 mps 752 mmHg 76%
08:00 +25°C° 0 mm 5 mps 752 mmHg 70%
09:00 +26°C° 0 mm 5 mps 752 mmHg 66%
10:00 +27°C° 0 mm 5 mps 752 mmHg 62%
11:00 +28°C° 0 mm 4 mps 752 mmHg 59%
12:00 +29°C° 0 mm 4 mps 752 mmHg 58%
13:00 +29°C° 0 mm 4 mps 751 mmHg 57%
14:00 +30°C° 0 mm 4 mps 751 mmHg 56%
15:00 +29°C° 0 mm 4 mps 751 mmHg 60%
16:00 +29°C° 0 mm 4 mps 751 mmHg 64%
17:00 +29°C° 0 mm 3 mps 751 mmHg 68%
18:00 +27°C° 0 mm 3 mps 751 mmHg 74%
19:00 +25°C° 0 mm 3 mps 751 mmHg 79%
20:00 +24°C° 0 mm 3 mps 751 mmHg 85%
21:00 +22°C° 0 mm 3 mps 751 mmHg 85%
22:00 +21°C° 0 mm 3 mps 751 mmHg 86%
23:00 +20°C° 0 mm 3 mps 751 mmHg 86%
Show more

We Need Your Consent

Meteoprog and our Service Providers may store and access personal data such as cookies, device identifiers or other similar technologies on your device and process such data to personalise content and ads, as well as provide social media features and to analyse the traffic.

  • Store and/or access information on your device

    Cookies, device identifiers or other information can be stored or accessed on your device for the purposes indicated above.

  • Personalised ads and content, ad and content measurement, audience insights, and products development

    Ads and content can be personalised based on a profile. More data can be added to better personalise ads and content. Ad and content performance can be measured. Insights about the audience who saw the ads and content can be derived. Such data can be used to develop or improve user’s experience, systems and software.

By clicking ‘I Agree’ you will allow the use of indicated cookies, device identifiers, web beacons or other similar technologies. Your settings can be changed in the browser on your device.

For certain purposes, legitimate interests may be relied on, rather than consent. You can read more about this in our Privacy and Cookie Policy.